User: anonymous   Login
Location: Unspecified
(0.0000°N, 0.0000°E)
Time: 15:34:22
(UTC+01:00)
Language:

SWIFT - Orbit

View from above orbital plane
View from above orbital plane
View from above satellite
View from above satellite

Ground track
Ground track

The orbit data is extracted from the following two-line orbital elements,

1 28485U 04047A   16344.47187409  .00001321  00000-0  62349-4 0  9995
2 28485  20.5581  20.7714 0011450   3.6613 356.3903 15.03495082659614
Epoch (UTC): 09 December 2016 11:19:29
Eccentricity: 0.0011450
inclination: 20.5581°
perigee height: 548 km
apogee height: 564 km
right ascension of ascending node: 20.7714°
argument of perigee: 3.6613°
revolutions per day: 15.03495082
mean anomaly at epoch: 356.3903°
orbit number at epoch: 65961

The dashed part of the orbit path shows where the satellite is in the earth's shadow,  

DLR